Preview of NWS' New Version of Forecast
This preview is not operational and should not be used for support decisions.

Regional Weather Roundup (RWR)

Issued by National Weather Service (NWS)

                            
000
ASUS43 KBIS 221902
RWRND 

NORTH DAKOTA REGIONAL WEATHER ROUNDUP
NATIONAL WEATHER SERVICE BISMARCK ND
200 PM CDT MON APR 22 2019

NOTE: "FAIR" INDICATES FEW OR NO CLOUDS BELOW 12,000 FEET WITH NO
SIGNIFICANT WEATHER AND/OR OBSTRUCTIONS TO VISIBILITY.


NDZ001>003-009>011-017-222000-
NORTHWEST NORTH DAKOTA
  
CITY           SKY/WX    TMP DP  RH WIND       PRES   REMARKS
WILLISTON      FAIR      62  20  19 VRB3      30.23F                  
MINOT          SUNNY     63  24  22 NW17      30.22F                  
MINOT AFB      SUNNY     60  24  25 N7        30.21F                  
$$
 
NDZ018>021-031>035-040>046-222000-
SOUTHWEST NORTH DAKOTA
  
CITY           SKY/WX    TMP DP  RH WIND       PRES   REMARKS
BISMARCK       FAIR      65  24  21 N9        30.21F                  
DICKINSON      FAIR      60  22  23 N9        30.22F                  
GARRISON         N/A     60  23  24 W6        30.21F                  
HETTINGER ARPT FAIR      61  23  23 N10G16    30.24F                  
$$
 
NDZ004>008-012>016-024-026-027-054-222000-
NORTHEAST NORTH DAKOTA
  
CITY           SKY/WX    TMP DP  RH WIND       PRES   REMARKS
GRAND FORKS    FAIR      61  42  49 N15G23    30.17F                  
GRND FRKS AFB  MOSUNNY   63  39  42 N16G22    30.19F                  
DEVILS LAKE    FAIR      59  28  30 NW12G17   30.21F                  
$$
 
NDZ022-023-025-028>030-036>039-047>053-222000-
SOUTHEAST NORTH DAKOTA
  
CITY           SKY/WX    TMP DP  RH WIND       PRES   REMARKS
FARGO          FAIR      64  40  41 NE14      30.14S                  
JAMESTOWN      SUNNY     64  38  38 N16G23    30.16F                  
$$